Weather History for Wheeler AAF, HI

Change the Weather History Date:

Saturday, May 19, 2012

  Actual Average Record
Temperature  
Mean Temperature 70 °F -  
Max Temperature 79 °F 77 °F 82 °F (2004)
Min Temperature 62 °F 64 °F 60 °F (1997)
Cooling Degree Days 6    
Growing Degree Days 20 (Base 50)    
Moisture  
Dew Point 61 °F    
Average Humidity 72    
Maximum Humidity 91    
Minimum Humidity 54    
Precipitation  
Precipitation 0.00 in - - ()
Sea Level Pressure  
Sea Level Pressure 30.05 in    
Wind  
Wind Speed 7 mph (NNE)    
Max Wind Speed 18 mph    
Max Gust Speed 25 mph    
Visibility 10 miles    
Events      
Averages and records for this station are not official NWS values.
T = Trace of Precipitation, MM = Missing Value Source: NWS Daily Summary

Daily Weather History Graph

Daily Weather History Graph

Search for Another Location

Airport:

Trip Planner

Search our weather history database for the weather conditions in past years. The results will help you decide how hot, cold, wet, or windy it might be!

Date:

Astronomy

May. 19, 2012 Rise Set
Actual Time 5:51 AM HST 7:05 PM HST
Civil Twilight 5:27 AM HST 7:29 PM HST
Nautical Twilight 4:59 AM HST 7:58 PM HST
Astronomical Twilight 4:29 AM HST 8:28 PM HST
Moon 4:57 AM HST (5/19) 6:22 PM HST (5/19)
Length of Visible Light 14h 01m
Length of Day
13h 13m
Waning Crescent, 1% of the Moon is Illuminated
May 19
Waning Crescent
May 20
New
May 28
First Quarter
Jun 4
Full
Jun 11
Last Quarter

Hourly Weather History & Observations

Time (HST) Temp. Dew Point Humidity Pressure Visibility Wind Dir Wind Speed Gust Speed Precip Events Conditions
12:43 AM 62.6 °F 59.0 °F 88% 30.08 in 10.0 mi WNW 5.8 mph - N/A   Mostly Cloudy
12:47 AM 62.6 °F 59.0 °F 88% 30.08 in 10.0 mi WNW 4.6 mph - N/A   Mostly Cloudy
12:55 AM 63.3 °F 59.0 °F 86% 30.08 in 10.0 mi WNW 3.5 mph - N/A   Scattered Clouds
12:58 AM 62.6 °F 59.0 °F 88% 30.08 in 10.0 mi West 3.5 mph - N/A   Mostly Cloudy
1:07 AM 64.4 °F 59.0 °F 83% 30.07 in 10.0 mi NW 5.8 mph - N/A   Mostly Cloudy
1:55 AM 64.9 °F 59.9 °F 84% 30.05 in 10.0 mi North 3.5 mph - N/A   Clear
2:55 AM 65.7 °F 60.6 °F 84% 30.03 in 10.0 mi NW 3.5 mph - N/A   Clear
3:55 AM 62.1 °F 59.4 °F 91% 30.03 in 10.0 mi WNW 5.8 mph - N/A   Clear
4:55 AM 64.0 °F 60.6 °F 89% 30.03 in 10.0 mi WNW 5.8 mph - N/A   Scattered Clouds
5:55 AM 64.6 °F 61.0 °F 88% 30.04 in 10.0 mi WNW 4.6 mph - N/A   Partly Cloudy
8:55 AM 74.3 °F 62.6 °F 67% 30.07 in 10.0 mi ENE 10.4 mph - N/A   Scattered Clouds
9:55 AM 76.8 °F 62.8 °F 62% 30.07 in 10.0 mi ENE 11.5 mph 18.4 mph N/A   Clear
10:55 AM 78.4 °F 62.2 °F 57% 30.07 in 10.0 mi NE 13.8 mph - N/A   Clear
11:55 AM 79.0 °F 62.8 °F 57% 30.06 in 10.0 mi ENE 13.8 mph 20.7 mph N/A   Clear
12:55 PM 79.5 °F 62.6 °F 56% 30.04 in 10.0 mi ENE 18.4 mph 25.3 mph N/A   Mostly Cloudy
1:55 PM 79.7 °F 61.9 °F 54% 30.03 in 10.0 mi ENE 16.1 mph - N/A   Clear
2:55 PM 79.3 °F 62.1 °F 55% 30.01 in 10.0 mi East 15.0 mph 23.0 mph N/A   Clear
3:55 PM 79.2 °F 61.7 °F 55% 30.01 in 10.0 mi ENE 16.1 mph 23.0 mph N/A   Clear
4:55 PM 77.7 °F 61.9 °F 58% 30.00 in 10.0 mi ENE 15.0 mph - N/A   Clear
5:55 PM 75.6 °F 62.1 °F 63% 30.01 in 10.0 mi NE 8.1 mph - N/A   Clear
6:55 PM 73.0 °F 62.4 °F 69% 30.02 in 10.0 mi ENE 8.1 mph - N/A   Partly Cloudy
7:55 PM 71.6 °F 62.2 °F 72% 30.04 in 10.0 mi NE 5.8 mph - N/A   Clear
8:55 PM 71.1 °F 61.9 °F 73% 30.06 in 10.0 mi ENE 4.6 mph - N/A   Partly Cloudy
9:55 PM 70.7 °F 61.0 °F 71% 30.06 in 10.0 mi NE 4.6 mph - N/A   Partly Cloudy
10:55 PM 70.3 °F 60.6 °F 71% 30.06 in 10.0 mi North 3.5 mph - N/A   Scattered Clouds
11:55 PM 70.2 °F 61.0 °F 73% 30.06 in 10.0 mi Calm Calm - N/A   Mostly Cloudy